This demonstration page uses our WeatherBlox Daily Observations layout. Learn more.

Left ArrowRight Arrow

39.51506, -84.39828

Hourly Observations for May 28, 2020

Temp ( °F °C ) Dew Point ( °F °C ) Humidity (%) Winds ( mph kmh ) Pressure ( in mb ) Visibility ( mi km ) Precip ( " mm )
12:15 am 00:15 Clear 68 20.1 67 19.7 98 98 Calm 29.95 1014 10 16.0934 0 0
12:35 am 00:35 Clear 68 19.9 67 19.4 97 97 Calm 29.95 1014 10 16.0934 0 0
12:55 am 00:55 Partly Cloudy 67 19.7 67 19.4 98 98 Calm 29.96 1014 10 16.0934 0 0
1:15 am 01:15 Partly Cloudy 67 19.6 67 19.3 98 98 Calm 29.96 1014 10 16.0934 0 0
1:35 am 01:35 Mostly Cloudy 68 20 67 19.7 98 98 Calm 29.94 1014 10 16.0934 0 0
1:55 am 01:55 Cloudy 68 20.2 68 19.8 98 98 Calm 29.94 1014 10 16.0934 0 0
2:15 am 02:15 Cloudy 69 20.4 68 20 98 98 Calm 29.94 1014 10 16.0934 0 0
2:35 am 02:35 Cloudy 69 20.8 68 20.1 96 96 Calm 29.94 1014 10 16.0934 0 0
2:55 am 02:55 Cloudy 72 22.3 67 19.6 85 85 Calm 29.93 1014 10 16.0934 0 0
3:15 am 03:15 Cloudy 72 22.3 67 19.5 84 84 S 6 9 29.93 1014 10 16.0934 0 0
3:35 am 03:35 Cloudy 72 22.3 67 19.5 84 84 SSW 7 11 29.93 1014 10 16.0934 0 0
3:55 am 03:55 Cloudy with Rain 70 21.3 68 20 92 92 SSW 7 11 29.93 1014 5 8.0467 0 0
4:15 am 04:15 Cloudy with Rain 69 20.4 68 19.9 97 97 S 8 13 29.94 1014 7 11.26538 0 0
4:35 am 04:35 Cloudy with Rain 69 20.3 68 20 98 98 Calm 29.93 1014 5 8.0467 0 0
4:55 am 04:55 Cloudy with Heavy Rain 68 20.2 68 20 99 99 SE 3 6 29.93 1014 2.5 4.02335 0 0
5:15 am 05:15 Cloudy with Light Rain 68 20 68 19.9 99 99 ESE 3 6 29.92 1013 5 8.0467 0 0
5:35 am 05:35 Cloudy with Light Rain 68 20 68 19.8 99 99 E 3 6 29.93 1014 7 11.26538 0 0
5:55 am 05:55 Cloudy 68 19.9 67 19.7 99 99 Calm 29.93 1014 10 16.0934 0 0
6:15 am 06:15 Cloudy 68 19.8 67 19.6 99 99 Calm 29.94 1014 10 16.0934 0 0
6:35 am 06:35 Cloudy 68 19.9 67 19.7 99 99 Calm 29.93 1014 10 16.0934 0 0
6:55 am 06:55 Cloudy 68 20 67 19.7 98 98 Calm 29.94 1014 10 16.0934 0 0
7:15 am 07:15 Cloudy 68 20 67 19.6 98 98 Calm 29.94 1014 10 16.0934 0 0
7:35 am 07:35 Cloudy with Rain 68 19.9 67 19.6 98 98 Calm 29.94 1014 3.5 5.63269 0 0
7:55 am 07:55 Cloudy with Light Rain 68 19.8 67 19.3 97 97 Calm 29.95 1014 7 11.26538 0 0
8:15 am 08:15 Cloudy 68 20 67 19.2 95 95 Calm 29.94 1014 10 16.0934 0 0
8:35 am 08:35 Cloudy 68 20.1 66 19.1 94 94 SE 5 7 29.95 1014 10 16.0934 0 0
8:55 am 08:55 Cloudy 69 20.3 67 19.3 94 94 SSE 3 6 29.95 1014 10 16.0934 0 0
9:15 am 09:15 Cloudy 68 20 66 19 94 94 SSE 5 7 29.94 1014 10 16.0934 0 0
9:35 am 09:35 Mostly Cloudy 70 20.9 67 19.5 92 92 S 7 11 29.94 1014 10 16.0934 0 0
9:55 am 09:55 Cloudy 71 21.4 67 19.5 89 89 S 7 11 29.94 1014 10 16.0934 0 0
10:15 am 10:15 Cloudy 71 21.7 68 19.8 89 89 SSW 7 11 29.94 1014 10 16.0934 0 0
10:35 am 10:35 Cloudy 72 22 68 19.8 87 87 SSW 12 19 29.94 1014 10 16.0934 0 0
10:55 am 10:55 Cloudy 72 22.2 69 20.4 90 90 SW 12 19 29.94 1014 7 11.26538 0 0
11:15 am 11:15 Cloudy 74 23.5 69 20.8 85 85 SW 12 19 29.94 1014 10 16.0934 0 0
11:35 am 11:35 Cloudy 74 23.6 68 19.9 80 80 WSW 18 30 29.95 1014 10 16.0934 0 0
11:55 am 11:55 Partly Cloudy 75 24.1 67 19.6 76 76 W 15 24 29.95 1014 10 16.0934 0 0
12:15 pm 12:15 Cloudy 76 24.3 67 19.7 76 76 W 12 19 29.95 1014 10 16.0934 0 0
12:35 pm 12:35 Partly Cloudy 76 24.5 67 19.6 74 74 WSW 14 22 29.94 1014 10 16.0934 0 0
12:55 pm 12:55 Cloudy 73 23 66 18.8 77 77 W 12 19 29.96 1014 10 16.0934 0 0
1:15 pm 13:15 Partly Cloudy 77 24.8 67 19.5 72 72 W 15 24 29.95 1014 10 16.0934 0 0
1:35 pm 13:35 Mostly Cloudy 77 25.2 67 19.7 72 72 WSW 12 19 29.95 1014 10 16.0934 0 0
1:55 pm 13:55 Mostly Cloudy 76 24.5 65 18.6 70 70 SW 14 22 29.95 1014 10 16.0934 0 0
2:15 pm 14:15 Mostly Cloudy 78 25.8 66 19 66 66 WSW 15 24 29.94 1014 10 16.0934 0 0
2:35 pm 14:35 Mostly Cloudy 77 25.2 66 18.8 68 68 WSW 12 19 29.93 1014 10 16.0934 0 0
2:55 pm 14:55 Sunny 80 26.4 67 19.5 66 66 WSW 16 26 29.93 1014 10 16.0934 0 0
3:15 pm 15:15 Sunny 80 26.6 66 18.7 62 62 W 14 22 29.91 1013 10 16.0934 0 0
3:35 pm 15:35 Partly Cloudy 79 25.9 64 17.8 61 61 WSW 13 20 29.91 1013 10 16.0934 0 0
3:55 pm 15:55 Mostly Cloudy 78 25.8 64 17.6 61 61 SW 8 13 29.9 1013 10 16.0934 0 0
4:15 pm 16:15 Partly Cloudy 81 27.3 64 17.6 55 55 WSW 16 26 29.9 1012 10 16.0934 0 0
4:35 pm 16:35 Partly Cloudy 81 27.2 64 17.7 56 56 WSW 14 22 29.89 1012 10 16.0934 0 0
4:55 pm 16:55 Partly Cloudy 82 27.5 64 17.5 54 54 WSW 12 19 29.88 1012 10 16.0934 0 0
5:15 pm 17:15 Partly Cloudy 82 27.5 64 17.6 55 55 WSW 7 11 29.88 1012 10 16.0934 0 0
5:35 pm 17:35 Sunny 81 27.4 64 17.8 56 56 WSW 12 19 29.88 1012 10 16.0934 0 0
5:55 pm 17:55 Partly Cloudy 82 27.7 64 17.8 55 55 SW 8 13 29.88 1012 10 16.0934 0 0
6:15 pm 18:15 Sunny 81 27.4 63 17.4 54 54 WSW 13 20 29.88 1012 10 16.0934 0 0
6:35 pm 18:35 Sunny 81 27.1 64 17.6 56 56 WSW 8 13 29.87 1011 10 16.0934 0 0
6:55 pm 18:55 Sunny 81 27 63 17.4 56 56 WSW 9 15 29.88 1012 10 16.0934 0 0
7:15 pm 19:15 Sunny 80 26.8 63 17.4 56 56 WSW 5 7 29.87 1011 10 16.0934 0 0
7:35 pm 19:35 Sunny 80 26.5 62 16.9 56 56 WSW 12 19 29.88 1012 10 16.0934 0 0
7:55 pm 19:55 Partly Cloudy 78 25.3 62 16.8 59 59 SW 9 15 29.89 1012 10 16.0934 0 0
8:15 pm 20:15 Mostly Cloudy 76 24.6 63 17.2 64 64 WSW 6 9 29.89 1012 10 16.0934 0 0
8:35 pm 20:35 Cloudy 76 24.3 64 17.7 67 67 Calm 29.89 1012 10 16.0934 0 0
8:55 pm 20:55 Mostly Cloudy 75 24.1 65 18.1 69 69 Calm 29.89 1012 10 16.0934 0 0
9:15 pm 21:15 Cloudy 73 22.8 68 20 84 84 Calm 29.9 1012 10 16.0934 0 0
9:35 pm 21:35 Mostly Cloudy 72 22.1 67 19.7 86 86 Calm 29.9 1013 10 16.0934 0 0
9:55 pm 21:55 Partly Cloudy 71 21.8 68 20.2 91 91 Calm 29.9 1013 10 16.0934 0 0
10:15 pm 22:15 Mostly Cloudy 70 21 67 19.7 92 92 Calm 29.91 1013 10 16.0934 0 0
10:35 pm 22:35 Partly Cloudy 69 20.7 67 19.7 94 94 Calm 29.91 1013 10 16.0934 0 0
10:55 pm 22:55 Mostly Cloudy 70 21 67 19.6 92 92 Calm 29.91 1013 10 16.0934 0 0
11:15 pm 23:15 Mostly Cloudy 69 20.5 67 19.5 94 94 Calm 29.91 1013 10 16.0934 0 0
11:35 pm 23:35 Clear 69 20.3 67 19.4 95 95 Calm 29.91 1013 7 11.26538 0 0
11:55 pm 23:55 Clear 67 19.3 65 18.3 94 94 WSW 3 6 29.92 1013 10 16.0934 0 0

Powered by AerisWeather